カタログに戻る

METEOR 2-17 DEB

運用中PO
NORAD 38286·DEBRIS·🇷🇺 Russia

打ち上げ Jan 30, 1988 から Plesetsk Cosmodrome

Loading…

次のパス (今後24時間)

TLE

最新Source: Space-Track

元期: Sep 13, 2026, 12:46 UTC

1 38286U 88005AP  26256.53206692  .00000483  00000-0  29521-3 0  9999
2 38286  82.5396 185.7134 0047832  11.5331 348.6923 14.03541702754984

AllMySatでMETEOR 2-17 DEBをリアルタイム追跡

Download on the App Store